This demonstration page uses our WeatherBlox Daily Observations layout. Learn more.

Left ArrowRight Arrow

44.89941, -97.11507

Hourly Observations for April 6, 2016

Temp ( °F °C ) Dew Point ( °F °C ) Humidity (%) Winds ( mph kmh ) Pressure ( in mb ) Visibility ( mi km ) Precip ( " mm )
12:53 am 00:53 Cloudy 46 7.8 33 0.6 61 61 WNW 15 24 29.63 1003 10 16 0.00 0.00
1:53 am 01:53 Cloudy 43 6.1 35 1.7 74 74 W 17 28 29.62 1003 10 16 0.00 0.00
2:53 am 02:53 Cloudy 41 5 37 2.8 86 86 W 20 31 29.60 1003 10 16 0.00 0.00
3:53 am 03:53 Cloudy 42 5.6 37 2.8 82 82 WNW 18 30 29.62 1003 10 16 0.00 0.00
4:15 am 04:15 Cloudy 42 5.6 38 3.3 85 85 NW 13 20 29.65 1004 10 16 0.00 0.00
4:35 am 04:35 Cloudy 43 6.1 38 3.3 82 82 NNW 16 26 29.68 1005 10 16 0.00 0.00
4:53 am 04:53 Cloudy 43 6.1 38 3.3 82 82 NW 16 26 29.65 1004 10 16 0.00 0.00
5:16 am 05:16 Cloudy 42 5.6 37 2.8 82 82 NW 21 33 29.68 1005 10 16 0.00 0.00
5:53 am 05:53 Cloudy 42 5.6 36 2.2 79 79 NW 21 33 29.70 1006 10 16 0.00 0.00
6:33 am 06:33 Mostly Cloudy 41 5 35 1.7 79 79 NNW 18 30 29.74 1007 10 16 0.00 0.00
6:45 am 06:45 Partly Cloudy 41 5 35 1.7 79 79 NW 17 28 29.74 1007 10 16 0.00 0.00
6:53 am 06:53 Partly Cloudy 41 5 35 1.7 79 79 NW 20 31 29.71 1006 10 16 0.00 0.00
7:10 am 07:10 Mostly Cloudy 41 5 35 1.7 79 79 NNW 26 43 29.74 1007 10 16 0.00 0.00
7:33 am 07:33 Cloudy 40 4.4 36 2.2 86 86 NW 20 31 29.74 1007 9 14 0.00 0.00
7:53 am 07:53 Cloudy 40 4.4 36 2.2 86 86 NNW 23 37 29.75 1008 8 13 0.00 0.00
8:14 am 08:14 Cloudy 41 5 35 1.7 79 79 NW 26 43 29.77 1008 10 16 0.00 0.00
8:45 am 08:45 Cloudy 41 5 36 2.2 82 82 NW 21 33 29.77 1008 10 16 0.00 0.00
8:53 am 08:53 Cloudy 41 5 35 1.7 79 79 NW 22 35 29.77 1008 10 16 0.00 0.00
9:24 am 09:24 Cloudy 39 3.9 35 1.7 86 86 NNW 24 39 29.83 1010 8 13 0.00 0.00
9:53 am 09:53 Cloudy with Mist and Fog 37 2.8 34 1.1 89 89 NW 17 28 29.80 1009 3 5 0.00 0.00
10:53 am 10:53 Cloudy 36 2.2 33 0.6 89 89 NW 23 37 29.82 1010 8 13 0.00 0.00
11:53 am 11:53 Cloudy 37 2.8 31 -0.6 79 79 NW 21 33 29.83 1010 10 16 0.00 0.00
12:09 pm 12:09 Cloudy 37 2.8 30 -1.1 76 76 NNW 18 30 29.85 1011 10 16 0.00 0.00
12:53 pm 12:53 Cloudy 37 2.8 30 -1.1 76 76 NW 21 33 29.85 1011 10 16 0.00 0.00
1:53 pm 13:53 Cloudy 37 2.8 30 -1.1 76 76 NW 22 35 29.86 1011 10 16 0.00 0.03
2:34 pm 14:34 Cloudy 38 3.3 29 -1.7 70 70 NW 20 31 29.85 1011 10 16 0.00 0.00
2:53 pm 14:53 Cloudy 38 3.3 29 -1.7 70 70 NNW 24 39 29.84 1011 10 16 0.00 0.00
3:53 pm 15:53 Cloudy 38 3.3 28 -2.2 68 68 NNW 21 33 29.83 1010 10 16 0.00 0.00
4:53 pm 16:53 Cloudy 38 3.3 29 -1.7 70 70 NNW 17 28 29.84 1010 10 16 0.00 0.00
5:53 pm 17:53 Cloudy 39 3.9 29 -1.7 67 67 NNW 20 31 29.85 1011 10 16 0.00 0.00
6:53 pm 18:53 Cloudy 39 3.9 29 -1.7 67 67 NW 12 19 29.84 1010 10 16 0.00 0.00
7:22 pm 19:22 Cloudy 39 3.9 29 -1.7 67 67 NNW 13 20 29.85 1011 10 16 0.00 0.00
7:53 pm 19:53 Cloudy 39 3.9 29 -1.7 67 67 NNW 12 19 29.83 1010 10 16 0.00 0.00
8:53 pm 20:53 Cloudy with Light Snow 36 2.2 32 0 86 86 NNW 6 9 29.83 1010 9 14 0.00 0.03
9:30 pm 21:30 Cloudy 36 2.2 32 0 86 86 N 6 9 29.85 1011 10 16 0.00 0.03
9:53 pm 21:53 Mostly Cloudy 35 1.7 32 0 89 89 N 5 7 29.84 1011 10 16 0.00 0.03
10:19 pm 22:19 Cloudy 35 1.7 32 0 89 89 Calm 29.85 1011 10 16 0.00 0.00
10:53 pm 22:53 Cloudy 35 1.7 32 0 89 89 Calm 29.84 1010 10 16 0.00 0.00
10:59 pm 22:59 Cloudy with Light Rain 35 1.7 32 0 89 89 Calm 29.85 1011 10 16 0.00 0.03
11:07 pm 23:07 Cloudy 35 1.7 32 0 89 89 Calm 29.85 1011 10 16 0.00 0.03
11:53 pm 23:53 Cloudy 35 1.7 32 0 89 89 Calm 29.83 1010 10 16 0.00 0.03

Powered by AerisWeather